Regional Weather Roundup
Issued by NWS Cleveland, OH

Home | Current Version | Previous Version | Graphics & Text | Print | Product List | Glossary On
Versions: 1 2 3 4 5 6 7 8 9 10 11 12 13 14 15 16 17 18 19 20 21 22 23 24 25 26 27 28 29 30 31 32 33 34 35 36 37 38 39 40 41 42 43 44 45 46 47 48 49 50
000
ASUS41 KCLE 202210
RWRCLE
OHIO REGIONAL WEATHER ROUNDUP
NATIONAL WEATHER SERVICE CLEVELAND, OH
600 PM EDT SUN APR 20 2014

NOTE: "FAIR" INDICATES FEW OR NO CLOUDS BELOW 12,000 FEET WITH NO
SIGNIFICANT WEATHER AND/OR OBSTRUCTIONS TO VISIBILITY.

OHZ001>008-015>018-024>027-034-035-043-044-202300-
   NORTHWEST OHIO

CITY           SKY/WX    TMP DP  RH WIND       PRES   REMARKS
DEFIANCE       SUNNY     73  27  18 S5        30.15F
FINDLAY        SUNNY     72  32  23 S6        30.15F
TOLEDO EXPRESS SUNNY     73  26  17 S12       30.15F
TOLEDO EXEC    SUNNY     69  39  33 NE8       30.17F
LIMA           SUNNY     74  32  21 VRB7      30.15F
$$

OHZ009>014-019>023-028>033-038-089-202300-
   NORTHEAST OHIO

CITY           SKY/WX    TMP DP  RH WIND       PRES   REMARKS
CLE-HOPKINS    MOSUNNY   74  29  19 SW10      30.19F
CLE-LAKEFRONT  MOSUNNY   53  42  66 NE10      30.16F
CUY CO. ARPT   PTSUNNY   73  28  19 MISG      30.21S
LORAIN-ELYRIA  SUNNY     75  33  21 S12       30.17F
ASHTABULA      MOSUNNY   71  26  18 S7        30.19F
AKRON-CANTON   PTSUNNY   73  27  18 S6        30.19F
WOOSTER        PTSUNNY   72  30  21 SE8       30.18F
MANSFIELD      MOSUNNY   71  36  27 S9        30.18F
YOUNGSTOWN     PTSUNNY   71  20  14 SE9       30.19F
$$

OHZ042-051>053-060>062-070>072-077>081-202300-
  SOUTHWEST OHIO

CITY           SKY/WX    TMP DP  RH WIND       PRES   REMARKS
CINC-COVINGTON PTSUNNY   75  33  21 SE6       30.14F
CINC-LUNKEN    SUNNY     75  38  26 VRB3      30.13F
HAMILTON       SUNNY     78  33  19 CALM      30.14F
DAYTON         PTSUNNY   75  34  22 W3        30.16F
WRIGHT-PAT AFB MOSUNNY   75  39  27 S8        30.15F
DAYTON GENERAL SUNNY     74  36  25 CALM      30.14F
WILMINGTON     SUNNY     75  39  27 SW9       30.15F
$$

OHZ036-037-039>041-045>050-054>059-063>069-073>076-082>088-202300-
  CENTRAL AND SOUTHEAST OHIO

CITY           SKY/WX    TMP DP  RH WIND       PRES   REMARKS
COLUMBUS       PTSUNNY   76  34  21 SE6       30.15F
OSU AIRPORT    MOSUNNY   74  38  27 S6        30.16F
BOLTON FIELD   SUNNY     73  39  29 S6        30.16F
RICKENBACK AFB MOSUNNY   78  23  13 CALM      30.15S
NEWARK         PTSUNNY   75  24  15 SE6       30.15F
MARION         MOSUNNY   71  39  31 S8        30.17F
LANCASTER      MOSUNNY   75  33  21 E8        30.15F
ZANESVILLE     PTSUNNY   73  25  16 SW8       30.16F
NEW PHILLY     PTSUNNY   73  21  14 SE8       30.18F
$$



USA.gov is the U.S. government's official web portal to all federal, state and local government web resources and services.